Location: Balmoral
(33.0667°S, 151.5833°E)
Time: 01:16:17
(UTC+00:00)

Cosmos 1862 Rocket - Pass Details

Date: 18 September 2020
Orbit: 603 x 634 km, 82.5° (Epoch: 21 October)

Event Time Altitude Azimuth Distance (km) Brightness Sun altitude
Rises 17:51:48 0° 183° (S) 2,965 7.2 -24.8°
Reaches altitude 10° 17:54:06 10° 179° (S) 2,048 6.4 -24.3°
Maximum altitude 17:58:37 62° 98° (E) 721 4.0 -23.4°
Drops below altitude 10° 18:03:03 10° 16° (NNE) 2,014 6.2 -22.5°
Sets 18:05:17 0° 13° (NNE) 2,909 7.0 -22.1°
